Weather History for Pella, IA

Change the Weather History Date:

Monday, December 23, 2013

  Actual Average (KOXV) Record (KOXV)
Temperature  
Mean Temperature -2 °F -  
Max Temperature 6 °F 30 °F 59 °F (1964)
Min Temperature -9 °F 15 °F -24 °F (1989)
Degree Days  
Heating Degree Days 66    
Moisture  
Dew Point -9 °F    
Average Humidity 65    
Maximum Humidity 79    
Minimum Humidity 47    
Precipitation  
Precipitation 0.00 in - - ()
Sea Level Pressure  
Sea Level Pressure 30.48 in    
Wind  
Wind Speed 9 mph (WNW)    
Max Wind Speed 15 mph    
Max Gust Speed 22 mph    
Visibility 10 miles    
Events      
Averages and records for this station are not official NWS values.
T = Trace of Precipitation, MM = Missing Value Source: NWS Daily Summary

Daily Weather History Graph

Daily Weather History Graph

Search for Another Location

Airport:

Trip Planner

Search our weather history database for the weather conditions in past years. The results will help you decide how hot, cold, wet, or windy it might be!

Date:

Astronomy

Dec. 23, 2013 Rise Set
Actual Time 7:35 AM CST 4:46 PM CST
Civil Twilight 7:04 AM CST 5:18 PM CST
Nautical Twilight 6:29 AM CST 5:52 PM CST
Astronomical Twilight 5:55 AM CST 6:26 PM CST
Moon 11:01 PM CST (12/23) 10:57 AM CST (12/23)
Length of Visible Light 10h 13m
Length of Day
9h 11m
Waning Gibbous, 68% of the Moon is Illuminated
Dec 23
Waning Gibbous
Dec 25
Last Quarter
Jan 1
New
Jan 7
First Quarter
Jan 15
Full

Hourly Weather History & Observations

Time (CST) Temp. Windchill Dew Point Humidity Pressure Visibility Wind Dir Wind Speed Gust Speed Precip Events Conditions
12:15 AM 5.2 °F -9.8 °F -0.2 °F 78% 30.32 in 10.0 mi NW 10.4 mph - N/A   Clear
12:35 AM 4.6 °F -12.0 °F -0.8 °F 78% 30.32 in 10.0 mi NW 12.7 mph 16.1 mph N/A   Clear
12:55 AM 3.9 °F -12.2 °F -1.3 °F 79% 30.32 in 10.0 mi NW 11.5 mph 16.1 mph N/A   Clear
1:15 AM 3.7 °F -13.2 °F -1.8 °F 78% 30.34 in 10.0 mi NW 12.7 mph - N/A   Clear
1:35 AM 3.4 °F -12.0 °F -2.4 °F 77% 30.34 in 10.0 mi NW 10.4 mph 17.3 mph N/A   Clear
1:55 AM 3.2 °F -13.1 °F -2.7 °F 76% 30.35 in 10.0 mi WNW 11.5 mph 17.3 mph N/A   Clear
2:15 AM 3.2 °F -13.1 °F -3.1 °F 75% 30.36 in 10.0 mi NW 11.5 mph 19.6 mph N/A   Clear
2:35 AM 2.1 °F -10.4 °F -4.0 °F 76% 30.37 in 10.0 mi NW 6.9 mph - N/A   Clear
2:55 AM 1.4 °F -11.3 °F -4.4 °F 77% 30.37 in 10.0 mi NW 6.9 mph - N/A   Clear
3:15 AM 0.5 °F -12.3 °F -5.1 °F 77% 30.38 in 10.0 mi NW 6.9 mph - N/A   Clear
3:35 AM 1.2 °F -11.5 °F -4.4 °F 77% 30.38 in 10.0 mi WNW 6.9 mph - N/A   Clear
3:55 AM 1.0 °F -12.9 °F -4.7 °F 77% 30.39 in 10.0 mi WNW 8.1 mph - N/A   Clear
4:15 AM 0.5 °F -13.6 °F -5.3 °F 77% 30.39 in 10.0 mi NW 8.1 mph - N/A   Clear
4:35 AM -0.0 °F -15.3 °F -6.0 °F 76% 30.39 in 10.0 mi NW 9.2 mph - N/A   Clear
4:55 AM -1.1 °F -15.5 °F -6.5 °F 78% 30.40 in 10.0 mi WNW 8.1 mph - N/A   Clear
5:15 AM -0.8 °F -17.2 °F -6.0 °F 79% 30.41 in 10.0 mi WNW 10.4 mph - N/A   Clear
5:35 AM -1.1 °F -16.6 °F -6.3 °F 79% 30.41 in 10.0 mi NW 9.2 mph - N/A   Clear
5:55 AM -1.3 °F -17.8 °F -7.1 °F 77% 30.42 in 10.0 mi NW 10.4 mph - N/A   Clear
6:15 AM -1.3 °F -17.8 °F -7.6 °F 75% 30.43 in 10.0 mi NW 10.4 mph 16.1 mph N/A   Clear
6:35 AM -0.8 °F -16.2 °F -7.1 °F 75% 30.44 in 10.0 mi WNW 9.2 mph - N/A   Clear
6:55 AM -0.4 °F -13.4 °F -6.9 °F 74% 30.45 in 10.0 mi WNW 6.9 mph - N/A   Clear
7:15 AM -0.2 °F -15.5 °F -6.7 °F 74% 30.46 in 10.0 mi WNW 9.2 mph - N/A   Clear
7:35 AM 0.1 °F -16.0 °F -6.7 °F 73% 30.47 in 10.0 mi WNW 10.4 mph - N/A   Clear
7:55 AM 0.3 °F -14.8 °F -6.9 °F 72% 30.47 in 10.0 mi NW 9.2 mph - N/A   Clear
8:15 AM 0.3 °F -15.8 °F -7.6 °F 69% 30.47 in 10.0 mi WNW 10.4 mph - N/A   Clear
8:35 AM 0.3 °F -14.8 °F -7.8 °F 69% 30.48 in 10.0 mi NW 9.2 mph - N/A   Clear
8:55 AM -0.4 °F -14.7 °F -8.5 °F 69% 30.48 in 10.0 mi NW 8.1 mph - N/A   Clear
9:15 AM 0.5 °F -15.6 °F -8.5 °F 66% 30.50 in 10.0 mi WNW 10.4 mph - N/A   Clear
9:35 AM 0.5 °F -17.3 °F -9.2 °F 64% 30.50 in 10.0 mi WNW 12.7 mph 19.6 mph N/A   Clear
9:55 AM 1.0 °F -18.0 °F -9.0 °F 63% 30.51 in 10.0 mi WNW 15.0 mph 21.9 mph N/A   Clear
10:15 AM 1.4 °F -14.5 °F -9.0 °F 62% 30.51 in 10.0 mi WNW 10.4 mph 16.1 mph N/A   Clear
10:35 AM 1.8 °F -15.7 °F -8.9 °F 61% 30.52 in 10.0 mi WNW 12.7 mph 17.3 mph N/A   Clear
10:55 AM 1.8 °F -17.1 °F -9.2 °F 60% 30.53 in 10.0 mi WNW 15.0 mph 19.6 mph N/A   Clear
11:15 AM 2.8 °F -12.7 °F -8.3 °F 60% 30.52 in 10.0 mi WNW 10.4 mph 16.1 mph N/A   Clear
11:35 AM 2.8 °F -14.3 °F -8.5 °F 59% 30.51 in 10.0 mi West 12.7 mph 18.4 mph N/A   Clear
11:55 AM 2.8 °F -15.7 °F -8.5 °F 59% 30.51 in 10.0 mi West 15.0 mph - N/A   Clear
12:15 PM 2.5 °F -16.2 °F -9.2 °F 58% 30.51 in 10.0 mi West 15.0 mph 20.7 mph N/A   Clear
12:35 PM 3.2 °F -14.6 °F -9.0 °F 57% 30.51 in 10.0 mi West 13.8 mph - N/A   Clear
12:55 PM 3.4 °F -14.4 °F -9.2 °F 56% 30.51 in 10.0 mi WNW 13.8 mph 20.7 mph N/A   Clear
1:15 PM 3.7 °F -13.2 °F -9.8 °F 54% 30.50 in 10.0 mi WNW 12.7 mph 17.3 mph N/A   Clear
1:35 PM 5.0 °F -12.3 °F -9.8 °F 51% 30.50 in 10.0 mi West 13.8 mph 17.3 mph N/A   Clear
1:55 PM 5.0 °F -12.3 °F -10.1 °F 50% 30.49 in 10.0 mi WNW 13.8 mph 18.4 mph N/A   Clear
2:15 PM 5.9 °F -9.7 °F -10.1 °F 48% 30.49 in 10.0 mi West 11.5 mph 18.4 mph N/A   Clear
2:35 PM 5.9 °F -9.7 °F -9.8 °F 49% 30.49 in 10.0 mi West 11.5 mph 18.4 mph N/A   Clear
2:55 PM 5.9 °F -9.7 °F -9.8 °F 49% 30.49 in 10.0 mi West 11.5 mph - N/A   Clear
3:15 PM 6.1 °F -5.6 °F -9.8 °F 48% 30.50 in 10.0 mi WNW 6.9 mph - N/A   Clear
3:35 PM 5.9 °F -8.0 °F -10.3 °F 47% 30.50 in 10.0 mi NW 9.2 mph - N/A   Clear
3:55 PM 5.4 °F -10.4 °F -10.3 °F 49% 30.51 in 10.0 mi WNW 11.5 mph 16.1 mph N/A   Clear
4:15 PM 4.8 °F -5.8 °F -10.3 °F 50% 30.52 in 10.0 mi West 5.8 mph - N/A   Clear
4:35 PM 3.2 °F -7.8 °F -10.3 °F 54% 30.52 in 10.0 mi WNW 5.8 mph - N/A   Clear
4:55 PM 2.1 °F -10.4 °F -10.7 °F 55% 30.53 in 10.0 mi West 6.9 mph - N/A   Clear
5:15 PM 0.9 °F - -11.2 °F 57% 30.53 in 10.0 mi Calm Calm - N/A   Clear
5:35 PM 0.7 °F -7.1 °F -11.2 °F 57% 30.53 in 10.0 mi West 3.5 mph - N/A   Clear
5:55 PM 0.3 °F -7.5 °F -11.2 °F 58% 30.54 in 10.0 mi West 3.5 mph - N/A   Clear
6:15 PM -0.4 °F -10.4 °F -12.1 °F 58% 30.54 in 10.0 mi West 4.6 mph - N/A   Clear
6:35 PM -0.9 °F -11.0 °F -12.3 °F 59% 30.54 in 10.0 mi West 4.6 mph - N/A   Clear
6:55 PM -2.0 °F -12.2 °F -13.0 °F 60% 30.54 in 10.0 mi West 4.6 mph - N/A   Clear
7:15 PM -2.2 °F -14.2 °F -13.0 °F 60% 30.55 in 10.0 mi West 5.8 mph - N/A   Clear
7:35 PM -3.5 °F -15.7 °F -13.5 °F 62% 30.55 in 10.0 mi West 5.8 mph - N/A   Clear
7:55 PM -4.2 °F -16.5 °F -14.1 °F 63% 30.55 in 10.0 mi West 5.8 mph - N/A   Clear
8:15 PM -4.0 °F -14.6 °F -13.4 °F 64% 30.55 in 10.0 mi West 4.6 mph - N/A   Clear
8:35 PM -4.9 °F -17.4 °F -13.4 °F 67% 30.55 in 10.0 mi West 5.8 mph - N/A   Clear
8:55 PM -6.0 °F -18.6 °F -14.3 °F 67% 30.55 in 10.0 mi West 5.8 mph - N/A   Clear
9:15 PM -6.0 °F -18.6 °F -14.6 °F 66% 30.55 in 10.0 mi West 5.8 mph - N/A   Clear
9:35 PM -6.7 °F -17.7 °F -14.6 °F 68% 30.55 in 10.0 mi WNW 4.6 mph - N/A   Clear
9:55 PM -6.7 °F -21.0 °F -15.2 °F 67% 30.55 in 10.0 mi West 6.9 mph - N/A   Clear
10:15 PM -6.7 °F -19.5 °F -14.8 °F 68% 30.55 in 10.0 mi WNW 5.8 mph - N/A   Clear
10:35 PM -7.4 °F -20.4 °F -15.5 °F 68% 30.56 in 10.0 mi West 5.8 mph - N/A   Clear
10:55 PM -7.1 °F -15.9 °F -15.3 °F 67% 30.56 in 10.0 mi West 3.5 mph - N/A   Clear
11:15 PM -9.2 °F -22.5 °F -17.1 °F 68% 30.56 in 10.0 mi West 5.8 mph - N/A   Clear
11:35 PM -9.0 °F - -16.8 °F 69% 30.56 in 10.0 mi Calm Calm - N/A   Clear
11:55 PM -8.9 °F - -16.8 °F 68% 30.56 in 10.0 mi Calm Calm - N/A   Clear